Regional Weather Roundup
Issued by NWS Bismarck, ND

Home | Current Version | Previous Version | Text Only | Print | Product List | Glossary On
Versions: 1 2 3 4 5 6 7 8 9 10 11 12 13 14 15 16 17 18 19 20 21 22 23 24 25 26 27 28 29 30 31 32 33 34 35 36 37 38 39 40 41 42 43 44 45 46 47 48 49 50
141
ASUS43 KBIS 080910
RWRBIS

NWR BROADCAST TEXT
NATIONAL WEATHER SERVICE BISMARCK ND
300 AM CST MON FEB 08 2016

NOTE: "FAIR" INDICATES FEW OR NO CLOUDS BELOW 12,000 FEET WITH NO
SIGNIFICANT WEATHER AND/OR OBSTRUCTIONS TO VISIBILITY.


CITY           SKY/WX    TMP DP  RH WIND       PRES   REMARKS
WILLISTON      CLEAR     26  17  68 NW21G29   30.32R WCI  12
MINOT          CLEAR     26  16  65 W21       30.20R WCI  12
MINOT AFB      CLEAR     24  19  82 NW23      30.19R WCI   8
BISMARCK       CLEAR     28  18  66 NW22G33   30.19F WCI  14
DICKINSON      CLEAR     18  13  80 W13       30.25S WCI   5
GARRISON         N/A     22  17  81 NW22      30.20S WCI   6
HETTINGER ARPT CLEAR     21  14  74 NW14      30.26F WCI   8
JAMESTOWN      CLOUDY    20  13  74 N26       30.08R WCI   2
BEACH          FAIR      19  14  79 NW14      30.35R WCI   6
CARRINGTON     CLOUDY    19  19 100 N14G20    30.12R WCI   6
HAZEN          FAIR      25  16  68 NW17G23   30.25R WCI  11
LINTON         FAIR      25  18  74 NW16G24   30.18S WCI  12
MANDAN         FAIR      25  18  74 NW24G31   30.19F WCI   9
OAKES          CLOUDY    19  14  79 N30G45    30.07R WCI   0
RUGBY          FAIR      18  14  86 NW20      30.14R WCI   1
STANLEY        FAIR      21  19  93 NW15G21   30.26R WCI   8
TIOGA          FAIR      19  19 100 NW15      30.33R WCI   5
WATFORD CITY   FAIR      21  18  86 W9        30.32R WCI  11
$$

CITY           SKY/WX    TMP DP  RH WIND       PRES   REMARKS
GRAND FORKS    LGT SNOW  14   8  77 N37G47    30.09R BLWGSNOWWCI  -9
GRAND FORKS AF LGT SNOW  14   9  79 N25G32    30.09S WCI  -5
DEVILS LAKE    FLURRIES  19  13  77 N17       30.10S WCI   4
FARGO          SNOW      15  11  83 N31G41    30.06R VSB 1/2 WCI  -6
CAVALIER       LGT SNOW  14   9  79 N18G31    30.13R WCI  -3
GRAFTON        LGT SNOW  12  10  92 N23G32    30.13R WCI  -7
GWINNER        CLOUDY    21  14  73 N22G29    30.08R WCI   5
LANGDON        LGT SNOW  14  10  85 N22G28    30.08R WCI  -4
ROLLA          FLURRIES  18  10  73 N25G35    30.11R WCI  -1
WALHALLA       FAIR      14  12  92 N17G30    30.14R WCI  -3
$$

CITY           SKY/WX    TMP DP  RH WIND       PRES   REMARKS
ABERDEEN       CLOUDY    26  16  65 N23G32    30.09R WCI  11
MOBRIDGE       CLEAR     27  17  66 N22G32    30.15R WCI  13
BUFFALO          N/A     23  13  65 NW18      30.24R WCI   9
RAPID CITY     CLEAR     28  10  46 NW23G33   30.28F WCI  14
GLASGOW        CLOUDY    20  14  77 NW7       30.41R WCI  11
SIDNEY         CLEAR     25  14  63 NW14      30.36R WCI  13
WOLF POINT     CLOUDY    23  15  71 W9        30.41R WCI  13
GLENDIVE       CLEAR     25  16  68 NW13      30.39R WCI  13
MILES CITY     CLOUDY    22  15  75 NW8       30.40R WCI  12
BAKER          CLEAR     22  13  68 W13       30.33S WCI  10
$$

CITY           SKY/WX    TMP DP  RH WIND       PRES   REMARKS
BILLINGS       PTCLDY    30  13  49 SW12      30.40F
GREAT FALLS    CLOUDY    32  20  61 SW12      30.40F
REGINA         CLEAR     18  16  93 NW10      30.33R WCI   6
$$





USA.gov is the U.S. government's official web portal to all federal, state and local government web resources and services.